1359590432090,3.71705
1359590492090,3.70436
1359590552090,3.70425
1359590612090,3.71195
1359590672090,3.69363
1359590732090,3.69953
1359590792090,3.72775
1359590852090,3.71564
1359590912090,3.67377
1359590972090,3.70359
1359591032090,3.68862
1359591092090,3.68308
1359591152090,3.68942
1359591212090,3.70397
1359591272090,3.68763
1359591332090,3.70830
1359591392090,3.69733
1359591452090,3.67733
1359591512090,3.68188
1359591572090,3.70721
1359591632090,3.68855
1359591692090,3.69255
1359591752090,3.72159
1359591812090,3.71668
1359591872090,3.69831
1359591932090,3.69598
1359591992090,3.70165
1359592052090,3.70766
1359592112090,3.70113
1359592172090,3.70639
1359592232090,3.70636
1359592292090,3.72243
1359592352090,3.68972
1359592412090,3.72690
1359592472090,3.69678
1359592532090,3.68722
1359592592090,3.73302
1359592652090,3.70557
1359592712090,3.71521
1359592772090,3.71164
1359592832090,3.68270
1359592892090,3.68750
1359592952090,3.70832
1359593012090,3.69284
1359593072090,3.71248
1359593132090,3.72181
1359593192090,3.71786
1359593252090,3.71437
1359593312090,3.69011
1359593372090,3.71780
1359593432090,3.69379
1359593492090,3.70346
1359593552090,3.65393
1359593612090,3.72916
1359593672090,3.66212
1359593732090,3.72974
1359593792090,3.69625
1359593852090,3.69530
1359593912090,3.70264
1359593972090,3.68629
1359594032101,3.72822
1359594092101,3.70863
1359594152101,3.67157
1359594212101,3.71765
1359594272101,3.69021
1359594332101,3.68529
1359594392101,3.73550
1359594452101,3.69248
1359594512101,3.71631
1359594572101,3.68023
1359594632101,3.73822
1359594692101,3.74587
1359594752101,3.71364
1359594812101,3.70015
1359594872101,3.71519
1359594932101,3.67851
1359594992101,3.71152
1359595052101,3.66283
1359595112101,3.71657
1359595172101,3.73103
1359595232101,3.71206
1359595292101,3.69196
1359595352101,3.69374
1359595412101,3.68230
1359595472101,3.69635
1359595532101,3.71632
1359595592101,3.70066
1359595652101,3.70216
1359595712101,3.70434
1359595772101,3.67375
1359595832101,3.69817
1359595892101,3.72316
1359595952101,3.70086
1359596012101,3.68109
1359596072101,3.73025
1359596132101,3.67462
1359596192101,3.71882
1359596252101,3.69404
1359596312101,3.70321
1359596372101,3.73869
1359596432101,3.66455
1359596492101,3.74393
1359596552101,3.73490
1359596612101,3.69197
1359596672101,3.70346
1359596732101,3.68652
1359596792101,3.71095
1359596852101,3.69933
1359596912101,3.73035
1359596972101,3.69284
1359597032101,3.68598
1359597092101,3.68713
1359597152101,3.67577
1359597212101,3.68973
1359597272101,3.67189
1359597332101,3.69709
1359597392101,3.65552
1359597452101,3.69790
1359597512101,3.68742
1359597572101,3.69073
1359597632111,3.70364
1359597692111,3.69410
1359597752111,3.73115
1359597812111,3.68882
1359597872111,3.72021
1359597932111,3.72046
1359597992111,3.68412
1359598052111,3.70624
1359598112111,3.65654
1359598172111,3.66556
1359598232111,3.70685
1359598292111,3.69507
1359598352111,3.68337
1359598412111,3.65994
1359598472111,3.68468
1359598532111,3.70401
1359598592111,3.70855
1359598652111,3.69631
1359598712111,3.72680
1359598772111,3.68044
1359598832111,3.70291
1359598892111,3.69354
1359598952111,3.71644
1359599012111,3.70415
1359599072111,3.70387
1359599132111,3.72391
1359599192111,3.70153
1359599252111,3.72173
1359599312111,3.67893
1359599372111,3.70537
1359599432111,3.69479
1359599492111,3.67602
1359599552111,3.70895
1359599612111,3.71395
1359599672111,3.68450
1359599732111,3.68789
1359599792111,3.68652
1359599852111,3.68497
1359599912111,3.73999
1359599972111,3.72773
1359600032111,3.71327
1359600092111,3.68544
1359600152111,3.70233
1359600212111,3.68789
1359600272111,3.69673
1359600332111,3.66956
1359600392111,3.68419
1359600452111,3.70587
1359600512111,3.73723
1359600572111,3.71211
1359600632111,3.69992
1359600692111,3.69326
1359600752111,3.70453
1359600812111,3.67728
1359600872111,3.70975
1359600932111,3.71255
1359600992111,3.67161
1359601052111,3.73163
1359601112111,3.69238
1359601172111,3.71688
1359601232122,3.66667
1359601292122,3.68758
1359601352122,3.67477
1359601412122,3.70200
1359601472122,3.72103
1359601532122,3.67711
1359601592122,3.68647
1359601652122,3.68475
1359601712122,3.69554
1359601772122,3.71127
1359601832122,3.68614
1359601892122,3.68794
1359601952122,3.67961
1359602012122,3.71163
1359602072122,3.70303
1359602132122,3.66717
1359602192122,3.65900
1359602252122,3.70624
1359602312122,3.70315
1359602372122,3.69862
1359602432122,3.72015
1359602492122,3.70001
1359602552122,3.72044
1359602612122,3.72205
1359602672122,3.70856
1359602732122,3.67993
1359602792122,3.71669
1359602852122,3.69197
1359602912122,3.71692
1359602972122,3.70772
1359603032122,3.72237
1359603092122,3.71077
1359603152122,3.69483
1359603212122,3.72513
1359603272122,3.69391
1359603332122,3.70644
1359603392122,3.68085
1359603452122,3.69658
1359603512122,3.69533
1359603572122,3.69657
1359603632122,3.70420
1359603692122,3.69984
1359603752122,3.73124
1359603812122,3.69818
1359603872122,3.69459
1359603932122,3.71447
1359603992122,3.69641
1359604052122,3.69942
1359604112122,3.69676
1359604172122,3.74751
1359604232122,3.71995
1359604292122,3.69691
1359604352122,3.72602
1359604412122,3.70367
1359604472122,3.69391
1359604532122,3.69306
1359604592122,3.70682
1359604652122,3.71488
1359604712122,3.70189
1359604772122,3.70690
1359604832133,3.70015
1359604892133,3.71531
1359604952133,3.66736
1359605012133,3.70786
1359605072133,3.71997
1359605132133,3.69324
1359605192133,3.68195
1359605252133,3.70954
1359605312133,3.69902
1359605372133,3.74646
1359605432133,3.68998
1359605492133,3.70909
1359605552133,3.69442
1359605612133,3.69599
1359605672133,3.69305
1359605732133,3.67801
1359605792133,3.69120
1359605852133,3.71071
1359605912133,3.71518
1359605972133,3.69946
1359606032133,3.70251
1359606092133,3.67751
1359606152133,3.72114
1359606212133,3.71099
1359606272133,3.72851
1359606332133,3.72686
1359606392133,3.72936
1359606452133,3.67952
1359606512133,3.73137
1359606572133,3.73549
1359606632133,3.71991
1359606692133,3.70354
1359606752133,3.69888
1359606812133,3.79975
1359606872133,3.85090
1359606932133,3.80408
1359606992133,3.78511
1359607052133,3.80638
1359607112133,3.79009
1359607172133,3.75509
1359607232133,3.74358
1359607292133,3.72843
1359607352133,3.74324
1359607412133,3.73694
1359607472133,3.68149
1359607532133,3.74530
1359607592133,3.71245
1359607652133,3.70707
1359607712133,3.71726
1359607772133,3.70407
1359607832133,3.73532
1359607892133,3.73010
1359607952133,3.72075
1359608012133,3.69770
1359608072133,3.71266
1359608132133,3.68980
1359608192133,3.71225
1359608252133,3.70672
1359608312133,3.71003
1359608372133,3.72359
1359608432144,3.74583
1359608492144,3.74024
1359608552144,3.68306
1359608612144,3.73132
1359608672144,3.70657
1359608732144,3.71950
1359608792144,3.86491
1359608852144,3.73368
1359608912144,3.73020
1359608972144,3.74836
1359609032144,3.72079
1359609092144,3.75369
1359609152144,3.73009
1359609212144,3.71075
1359609272144,3.74241
1359609332144,3.75182
1359609392144,3.72105
1359609452144,3.73377
1359609512144,3.70421
1359609572144,3.70844
1359609632144,3.72420
1359609692144,3.70801
1359609752144,3.70045
1359609812144,3.70391
1359609872144,3.70012
1359609932144,3.71218
1359609992144,3.73391
1359610052144,3.72870
1359610112144,3.70808
1359610172144,3.71268
1359610232144,3.74172
1359610292144,3.77117
1359610352144,3.72859
1359610412144,3.70354
1359610472144,3.70920
1359610532144,3.70288
1359610592144,3.71338
1359610652144,3.68902
1359610712144,3.68840
1359610772144,3.69001
1359610832144,3.72513
1359610892144,3.76869
1359610952144,3.73037
1359611012144,3.72016
1359611072144,3.73719
1359611132144,3.72440
1359611192144,3.72843
1359611252144,3.71528
1359611312144,3.74797
1359611372144,3.72331
1359611432144,3.72905
1359611492144,3.72312
1359611552144,3.73259
1359611612144,3.74114
1359611672144,3.71859
1359611732144,3.76062
1359611792144,3.74484
1359611852144,3.73965
1359611912144,3.73352
1359611972144,3.73909
1359612032156,3.72544
1359612092156,3.74387
1359612152156,3.75364
1359612212156,3.74655
1359612272156,3.72382
1359612332156,3.73755
1359612392156,3.73962
1359612452156,3.72113
1359612512156,3.71373
1359612572156,3.74448
1359612632156,3.71846
1359612692156,3.73740
1359612752156,3.75100
1359612812156,3.76381
1359612872156,3.76024
1359612932156,3.76991
1359612992156,3.75175
1359613052156,3.74999
1359613112156,3.75936
1359613172156,3.76204
1359613232156,3.73269
1359613292156,3.73652
1359613352156,3.75616
1359613412156,3.79512
1359613472156,3.78471
1359613532156,3.73459
1359613592156,3.74393
1359613652156,3.76002
1359613712156,3.73925
1359613772156,3.75120
1359613832156,3.74974
1359613892156,3.73284
1359613952156,3.76263
1359614012156,3.74011
1359614072156,3.74751
1359614132156,3.76090
1359614192156,3.74118
1359614252156,3.74598
1359614312156,3.74556
1359614372156,3.75926
1359614432156,3.78047
1359614492156,3.78396
1359614552156,3.76997
1359614612156,3.77226
1359614672156,3.74340
1359614732156,3.77999
1359614792156,3.79680
1359614852156,3.74523
1359614912156,3.77244
1359614972156,3.77264
1359615032156,3.76340
1359615092156,3.77237
1359615152156,3.75086
1359615212156,3.73795
1359615272156,3.79101
1359615332156,3.75902
1359615392156,3.78531
1359615452156,3.79043
1359615512156,3.76626
1359615572156,3.78360
1359615632167,3.77597
1359615692167,3.77591
1359615752167,3.78101
1359615812167,3.77469
1359615872167,3.75608
1359615932167,3.73057
1359615992167,3.77587
1359616052167,3.77702
1359616112167,3.73110
1359616172167,3.78011
1359616232167,3.77688
1359616292167,3.72181
1359616352167,3.75940
1359616412167,3.76880
1359616472167,3.77982
1359616532167,3.78659
1359616592167,3.79653
1359616652167,3.77190
1359616712167,3.74172
1359616772167,3.77593
1359616832167,3.78408
1359616892167,3.77707
1359616952167,3.74407
1359617012167,3.76094
1359617072167,3.76490
1359617132167,3.75829
1359617192167,3.78731
1359617252167,3.75073
1359617312167,3.74049
1359617372167,3.77109
1359617432167,3.76667
1359617492167,3.76817
1359617552167,3.75349
1359617612167,3.75019
1359617672167,3.77999
1359617732167,3.74794
1359617792167,3.78231
1359617852167,3.76950
1359617912167,3.78993
1359617972167,3.77104
1359618032167,3.79003
1359618092167,3.76791
1359618152167,3.78537
1359618212167,3.76428
1359618272167,3.74562
1359618332167,3.78835
1359618392167,3.74042
1359618452167,3.77128
1359618512167,3.79593
1359618572167,3.78855
1359618632167,3.78356
1359618692167,3.76641
1359618752167,3.76634
1359618812167,3.77804
1359618872167,3.76552
1359618932167,3.80167
1359618992167,3.77343
1359619052167,3.77667
1359619112167,3.78743
1359619172167,3.79419
1359619232179,3.76884
1359619292179,3.78233
1359619352179,3.76167
1359619412179,3.76919
1359619472179,3.82956
1359619532179,3.77582
1359619592179,3.80319
1359619652179,3.79006
1359619712179,3.78443
1359619772179,3.78347
1359619832179,3.80564
1359619892179,3.77884
1359619952179,3.75877
1359620012179,3.78972
1359620072179,3.80561
1359620132179,3.79704
1359620192179,3.81919
1359620252179,3.79287
1359620312179,3.77694
1359620372179,3.78829
1359620432179,3.79280
1359620492179,3.79133
1359620552179,3.79767
1359620612179,3.73639
1359620672179,3.78541
1359620732179,3.80760
1359620792179,3.78451
1359620852179,3.77905
1359620912179,3.82494
1359620972179,3.79645
1359621032179,3.77875
1359621092179,3.77076
1359621152179,3.78689
1359621212179,3.79501
1359621272179,3.78008
1359621332179,3.78902
1359621392179,3.78339
1359621452179,3.77549
1359621512179,3.77538
1359621572179,3.80349
1359621632179,3.79433
1359621692179,3.79729
1359621752179,3.80489
1359621812179,3.80302
1359621872179,3.80600
1359621932179,3.78336
1359621992179,3.79517
1359622052179,3.83276
1359622112179,3.81559
1359622172179,3.80881
1359622232179,3.80448
1359622292179,3.80473
1359622352179,3.83151
1359622412179,3.78670
1359622472179,3.76838
1359622532179,3.81410
1359622592179,3.80934
1359622652179,3.80894
1359622712179,3.80775
1359622772179,3.81092
1359622832190,3.79772
1359622892190,3.78298
1359622952190,3.81315
1359623012190,3.82784
1359623072190,3.80483
1359623132190,3.76801
1359623192190,3.84302
1359623252190,3.80864
1359623312190,3.81846
1359623372190,3.80673
1359623432190,3.79470
1359623492190,3.79812
1359623552190,3.79500
1359623612190,3.80911
1359623672190,3.79510
1359623732190,3.83389
1359623792190,3.76874
1359623852190,3.78868
1359623912190,3.80777
1359623972190,3.81369
1359624032190,3.80986
1359624092190,3.82540
1359624152190,3.82194
1359624212190,3.79462
1359624272190,3.81421
1359624332190,3.84220
1359624392190,3.81112
1359624452190,3.79292
1359624512190,3.80322
1359624572190,3.80454
1359624632190,3.81196
1359624692190,3.80658
1359624752190,3.82647
1359624812190,3.82292
1359624872190,3.83458
1359624932190,3.82909
1359624992190,3.82440
1359625052190,3.78379
1359625112190,3.78957
1359625172190,3.80727
1359625232190,3.80725
1359625292190,3.81680
1359625352190,3.84232
1359625412190,3.81316
1359625472190,3.82129
1359625532190,3.81207
1359625592190,3.82299
1359625652190,3.81390
1359625712190,3.83546
1359625772190,3.80315
1359625832190,3.81392
1359625892190,3.79599
1359625952190,3.79442
1359626012190,3.80236
1359626072190,3.80354
1359626132190,3.79570
1359626192190,3.77492
1359626252190,3.80510
1359626312190,3.79931
1359626372190,3.80222
1359626432202,3.79112
1359626492202,3.80160
1359626552202,3.83677
1359626612202,3.79522
1359626672202,3.80111
1359626732202,3.79687
1359626792202,3.78687
1359626852202,3.79102
1359626912202,3.77565
1359626972202,3.77502
1359627032202,3.76557
1359627092202,3.80519
1359627152202,3.79844
1359627212202,3.79572
1359627272202,3.77664
1359627332202,3.80761
1359627392202,3.79650
1359627452202,3.76680
1359627512202,3.80748
1359627572202,3.75862
1359627632202,3.78212
1359627692202,3.77687
1359627752202,3.80559
1359627812202,3.77795
1359627872202,3.77904
1359627932202,3.80249
1359627992202,3.78421
1359628052202,3.80779
1359628112202,3.78185
1359628172202,3.74937
1359628232202,3.78217
1359628292202,3.80035
1359628352202,3.77969
1359628412202,3.78093
1359628472202,3.76281
1359628532202,3.79001
1359628592202,3.77447
1359628652202,3.77352
1359628712202,3.74331
1359628772202,3.75142
1359628832202,3.74242
1359628892202,3.77177
1359628952202,3.78436
1359629012202,3.77335
1359629072202,3.77528
1359629132202,3.76475
1359629192202,3.75974
1359629252202,3.77064
1359629312202,3.73821
1359629372202,3.74504
1359629432202,3.74492
1359629492202,3.76922
1359629552202,3.76396
1359629612202,3.74143
1359629672202,3.76907
1359629732202,3.75173
1359629792202,3.77602
1359629852202,3.75818
1359629912202,3.75693
1359629972202,3.73492
1359630032213,3.75341
1359630092213,3.76479
1359630152213,3.75796
1359630212213,3.75345
1359630272213,3.74839
1359630332213,3.76375
1359630392213,3.74114
1359630452213,3.77356
1359630512213,3.74004
1359630572213,3.78217
1359630632213,3.79557
1359630692213,3.74023
1359630752213,3.74347
1359630812213,3.77575
1359630872213,3.76514
1359630932213,3.75547
1359630992213,3.71764
1359631052213,3.76483
1359631112213,3.74320
1359631172213,3.75558
1359631232213,3.75349
1359631292213,3.76939
1359631352213,3.74654
1359631412213,3.78065
1359631472213,3.75279
1359631532213,3.75818
1359631592213,3.75501
1359631652213,3.74975
1359631712213,3.73409
1359631772213,3.77679
1359631832213,3.75891
1359631892213,3.75678
1359631952213,3.72751
1359632012213,3.78788
1359632072213,3.72527
1359632132213,3.72931
1359632192213,3.75117
1359632252213,3.74994
1359632312213,3.72210
1359632372213,3.74738
1359632432213,3.76426
1359632492213,3.73150
1359632552213,3.76550
1359632612213,3.76519
1359632672213,3.72939
1359632732213,3.77313
1359632792213,3.75523
1359632852213,3.75577
1359632912213,3.75965
1359632972213,3.73422
1359633032213,3.73265
1359633092213,3.72785
1359633152213,3.76501
1359633212213,3.75801
1359633272213,3.74443
1359633332213,3.75737
1359633392213,3.74372
1359633452213,3.75943
1359633512213,3.76210
1359633572213,3.77173
1359633632225,3.72535
1359633692225,3.73859
1359633752225,3.76033
1359633812225,3.76307
1359633872225,3.75107
1359633932225,3.74854
1359633992225,3.76830
1359634052225,3.71348
1359634112225,3.76415
1359634172225,3.74886
1359634232225,3.72971
1359634292225,3.74056
1359634352225,3.73971
1359634412225,3.73212
1359634472225,3.74144
1359634532225,3.74795
1359634592225,3.76289
1359634652225,3.76026
1359634712225,3.73429
1359634772225,3.74568
1359634832225,3.74266
1359634892225,3.75840
1359634952225,3.73124
1359635012225,3.72878
1359635072225,3.75287
1359635132225,3.72731
1359635192225,3.73235
1359635252225,3.74334
1359635312225,3.75767
1359635372225,3.72571
1359635432225,3.74970
1359635492225,3.75608
1359635552225,3.76443
1359635612225,3.71697
1359635672225,3.70339
1359635732225,3.75706
1359635792225,3.73578
1359635852225,3.73242
1359635912225,3.71903
1359635972225,3.72701
1359636032225,3.73842
1359636092225,3.73575
1359636152225,3.77962
1359636212225,3.72182
1359636272225,3.75079
1359636332225,3.75777
1359636392225,3.75905
1359636452225,3.73158
1359636512225,3.79595
1359636572225,3.73430
1359636632225,3.73687
1359636692225,3.76091
1359636752225,3.72635
1359636812225,3.74931
1359636872225,3.76988
1359636932225,3.70962
1359636992225,3.72576
1359637052225,3.71707
1359637112225,3.74285
1359637172225,3.74119
1359637232224,3.74350
1359637292224,3.72259
1359637352224,3.75050
1359637412224,3.75385
1359637472224,3.74332
1359637532224,3.77388
1359637592224,3.73441
1359637652224,3.76610
1359637712224,3.76819
1359637772224,3.74464
1359637832224,3.73524
1359637892224,3.75302
1359637952224,3.75674
1359638012224,3.75338
1359638072224,3.73056
1359638132224,3.73967
1359638192224,3.75959
1359638252224,3.72574
1359638312224,3.75313
1359638372224,3.74466
1359638432224,3.76449
1359638492224,3.74536
1359638552224,3.73492
1359638612224,3.73894
1359638672224,3.76319
1359638732224,3.74587
1359638792224,3.72168
1359638852224,3.76720
1359638912224,3.74191
1359638972224,3.72797
1359639032224,3.73818
1359639092224,3.75288
1359639152224,3.76470
1359639212224,3.74666
1359639272224,3.77013
1359639332224,3.76486
1359639392224,3.74353
1359639452224,3.75427
1359639512224,3.75050
1359639572224,3.76944
1359639632224,3.75179
1359639692224,3.75234
1359639752224,3.73660
1359639812224,3.76591
1359639872224,3.76761
1359639932224,3.73659
1359639992224,3.76916
1359640052224,3.75449
1359640112224,3.76270
1359640172224,3.75339
1359640232224,3.74295
1359640292224,3.76320
1359640352224,3.74530
1359640412224,3.78463
1359640472224,3.78176
1359640532224,3.75312
1359640592224,3.76341
1359640652224,3.74599
1359640712224,3.75316
1359640772224,3.77106
1359640832236,3.76879
1359640892236,3.75760
1359640952236,3.74883
1359641012236,3.74954
1359641072236,3.76808
1359641132236,3.76313
1359641192236,3.74221
1359641252236,3.75543
1359641312236,3.77626
1359641372236,3.77987
1359641432236,3.75755
1359641492236,3.75079
1359641552236,3.78357
1359641612236,3.74609
1359641672236,3.75828
1359641732236,3.75003
1359641792236,3.76616
1359641852236,3.76336
1359641912236,3.74211
1359641972236,3.77452
1359642032236,3.74820
1359642092236,3.76589
1359642152236,3.75460
1359642212236,3.77472
1359642272236,3.75623
1359642332236,3.75156
1359642392236,3.73799
1359642452236,3.77184
1359642512236,3.74303
1359642572236,3.76524
1359642632236,3.76469
1359642692236,3.73650
1359642752236,3.78634
1359642812236,3.77801
1359642872236,3.79166
1359642932236,3.76091
1359642992236,3.76508
1359643052236,3.73375
1359643112236,3.75993
1359643172236,3.79228
1359643232236,3.76244
1359643292236,3.77784
1359643352236,3.77732
1359643412236,3.77666
1359643472236,3.76128
1359643532236,3.77130
1359643592236,3.76299
1359643652236,3.76585
1359643712236,3.75597
1359643772236,3.79046
1359643832236,3.78976
1359643892236,3.79377
1359643952236,3.76745
1359644012236,3.75090
1359644072236,3.76369
1359644132236,3.79901
1359644192236,3.76760
1359644252236,3.75507
1359644312236,3.75271
1359644372236,3.74513
1359644432247,3.76091
1359644492247,3.74432
1359644552247,3.76160
1359644612247,3.78249
1359644672247,3.75164
1359644732247,3.77566
1359644792247,3.77839
1359644852247,3.77456
1359644912247,3.74992
1359644972247,3.78650
1359645032247,3.77392
1359645092247,3.75910
1359645152247,3.75691
1359645212247,3.76247
1359645272247,3.77254
1359645332247,3.77398
1359645392247,3.75720
1359645452247,3.77903
1359645512247,3.78634
1359645572247,3.79651
1359645632247,3.75540
1359645692247,3.75866
1359645752247,3.76340
1359645812247,3.76409
1359645872247,3.76327
1359645932247,3.76585
1359645992247,3.76667
1359646052247,3.75962
1359646112247,3.79614
1359646172247,3.75680
1359646232247,3.78796
1359646292247,3.77983
1359646352247,3.78463
1359646412247,3.74603
1359646472247,3.76770
1359646532247,3.78674
1359646592247,3.78262
1359646652247,3.79360
1359646712247,3.76455
1359646772247,3.78376
1359646832247,3.78956
1359646892247,3.79651
1359646952247,3.75816
1359647012247,3.76074
1359647072247,3.77294
1359647132247,3.74737
1359647192247,3.76041
1359647252247,3.75849
1359647312247,3.76615
1359647372247,3.75790
1359647432247,3.75929
1359647492247,3.76563
1359647552247,3.75188
1359647612247,3.77859
1359647672247,3.77824
1359647732247,3.77226
1359647792247,3.77103
1359647852247,3.79262
1359647912247,3.77033
1359647972247,3.77744
1359648032258,3.75520
1359648092258,3.77628
1359648152258,3.75799
1359648212258,3.77057
1359648272258,3.77499
1359648332258,3.76833
1359648392258,3.78074
1359648452258,3.75431
1359648512258,3.82702
1359648572258,3.75744
1359648632258,3.77731
1359648692258,3.77307
1359648752258,3.76673
1359648812258,3.76936
1359648872258,3.73904
1359648932258,3.76962
1359648992258,3.75902
1359649052258,3.75702
1359649112258,3.75470
1359649172258,3.76684
1359649232258,3.77823
1359649292258,3.75724
1359649352258,3.78033
1359649412258,3.77192
1359649472258,3.76124
1359649532258,3.77173
1359649592258,3.78351
1359649652258,3.80120
1359649712258,3.79212
1359649772258,3.77660
1359649832258,3.79673
1359649892258,3.78933
1359649952258,3.77077
1359650012258,3.80867
1359650072258,3.76086
1359650132258,3.80493
1359650192258,3.81534
1359650252258,3.79756
1359650312258,3.79321
1359650372258,3.76007
1359650432258,3.80120
1359650492258,3.75514
1359650552258,3.76781
1359650612258,3.78238
1359650672258,3.77923
1359650732258,3.77850
1359650792258,3.77581
1359650852258,3.78735
1359650912258,3.78739
1359650972258,3.79974
1359651032258,3.78391
1359651092258,3.78155
1359651152258,3.76805
1359651212258,3.78043
1359651272258,3.80879
1359651332258,3.75485
1359651392258,3.81077
1359651452258,3.79531
1359651512258,3.81124
1359651572258,3.77563
1359651632269,3.81377
1359651692269,3.80134
1359651752269,3.77522
1359651812269,3.79841
1359651872269,3.79043
1359651932269,3.79581
1359651992269,3.78237
1359652052269,3.78252
1359652112269,3.80130
1359652172269,3.79206
1359652232269,3.79261
1359652292269,3.76506
1359652352269,3.79217
1359652412269,3.80299
1359652472269,3.79491
1359652532269,3.78452
1359652592269,3.78986
1359652652269,3.78004
1359652712269,3.78691
1359652772269,3.81489
1359652832269,3.79444
1359652892269,3.78058
1359652952269,3.78529
1359653012269,3.79210
1359653072269,3.78032
1359653132269,3.80912
1359653192269,3.80471
1359653252269,3.78417
1359653312269,3.80490
1359653372269,3.81164
1359653432269,3.80215
1359653492269,3.79417
1359653552269,3.78867
1359653612269,3.80484
1359653672269,3.81000
1359653732269,3.79785
1359653792269,3.82319
1359653852269,3.80203
1359653912269,3.77411
1359653972269,3.79186
1359654032269,3.79960
1359654092269,3.79103
1359654152269,3.81203
1359654212269,3.82093
1359654272269,3.81656
1359654332269,3.81697
1359654392269,3.81827
1359654452269,3.81615
1359654512269,3.80071
1359654572269,3.77420
1359654632269,3.79167
1359654692269,3.80725
1359654752269,3.79286
1359654812269,3.82062
1359654872269,3.78888
1359654932269,3.81125
1359654992269,3.80555
1359655052269,3.83413
1359655112269,3.79180
1359655172269,3.81633
1359655232280,3.80935
1359655292280,3.80469
1359655352280,3.78229
1359655412280,3.79410
1359655472280,3.80081
1359655532280,3.79304
1359655592280,3.79559
1359655652280,3.80632
1359655712280,3.78970
1359655772280,3.77812